Terminal Aerodrome Forecast
Issued by NWS El Paso, TX

Home | Current Version | Previous Version | Text Only | Print | Product List | Glossary On
Versions: 1 2 3 4 5 6 7 8 9 10 11 12 13 14 15
000
FTUS44 KEPZ 241700
TAFELP
TAF
KELP 241740Z 2418/2518 13007KT P6SM FEW100 FEW250
     FM250300 09006KT P6SM FEW100=

USA.gov is the U.S. government's official web portal to all federal, state and local government web resources and services.